CZ-3C DEB, 40816

Orbit data source: Space-Track

CZ-3C DEB, 40816 is space debris originally from a launch on Sun, 31 Oct 2010 UTC launched from the Xichang Space Center, China (XSC). Debris objects in space refer to the collection of defunct objects orbiting the Earth. Examples of debris include non-operational satellites, rocket bodies, and fragments generated from explosions, collisions, or faulty payload assembly.

Loading next visibility...
CZ-3C DEB details
Identifier
40816, 2010-057AH
Orbit
Molniya
Last TLE update1 month ago
Origin
Flag of CNCASC (CN / PRC)
ManufacturerCALT
MissionSpacecraft
Bus & MotorUnknown
MassUnknown
Launch date (UTC)
2010-10-31 (14 years ago)
Launch vehicleUnknown
Launch site
Xichang Space Center, China (XSC)
Object type
Payload
Rocket body
Debris
Shape & HBRUnknown
Radar Cross SectionSmall (<0.1 m²)

Expand to show TLE details & history

TLE from 1 month ago
0 CZ-3C DEB
1 40816U 10057AH  24298.43136527 -.00000069  00000-0 -64025-4 0  9996
2 40816  19.7804 245.1152 7117488 261.2264  19.5039  2.29515110 85915
Epoch: 2024-10-24T10:21Z
Definitive object data (Epoch: 2024-10-24T10:21:09.959Z)
Latitude-0.00014°
Longitude56.42022°
Altitude7,053.72 km
Speed6.552 km/s
True Right ascension16h 20m 06s
True Declination0° 00' 00"
Sunlit
Object was in daylight at TLE epoch
Visualization TLE readout
Latitude-3.40268°
Longitude-129.09144°
Altitude7,030.702 km
Speed6.56 km/s
Apparent Right ascension02h 55m 53s
Apparent Declination-26° 58' 13"
Sunlit
Object is in daylight
Visualization observer readout
Local Sidereal Time06:04:08
Azimuth221.5° SW
Elevation10.059°
Doppler factor1
Orbital elements
Apogee altitude35,185.369 km
Perigee altitude620.98 km
Semi-major axis24,281.311 km
Eccentricity0.7117488
Inclination19.7804°
RAAN245.1152°
Arg. of periapsis261.2264°
True anomaly99.03571°
Mean anomaly19.5039°
Eccentric anomaly51.35405°
Mean motion0.57363 °/min
BSTAR-0.000064025
Orbital period627.58 mins
Loading maneuver chart data...
Loading historical data...
Loading historical data...
Loading historical data...
Loading historical data...
Loading historical data...
Loading historical data...
Loading historical data...

CZ-3C DEB Visibility forecast

Observer location: undefined°, undefined

Span
Click to sort rows by Start time (UTC) header in descending order
Start Az.
Max El. time (UTC)
Max El. Az.
Max El.
End time (UTC)
End Az.
575 mins2024-12-04 19:34:03.640Z216.965° SW2024-12-05 00:25:03.640Z169.145° S42.109°2024-12-05 05:09:03.640Z154.72° SSE
|